EZY9907 EGPF-EGPD

Flight info

Callsign EZY9907
Flight time 0h 33m
Altitude 21000
Route PTH P600 ADN
Aircraft A320/M-SDE3FGHIRWY/LB1

Departure

Time 2026-05-07 10:06
Airport Glasgow Airport (EGPF)

Arrival

Time 2026-05-07 10:39
Airport Aberdeen International Airport (EGPD)
Time Latitude Longitude Altitude Speed Heading
2026-05-07 09:49 55.86637 -4.43309 22 ft 0 kts 253°
2026-05-07 09:57 55.86639 -4.43298 24 ft 2 kts 253°
2026-05-07 09:58 55.86644 -4.43272 24 ft 2 kts 262°
2026-05-07 09:58 55.86642 -4.43246 24 ft 2 kts 291°
2026-05-07 09:58 55.86634 -4.43223 24 ft 2 kts 317°
2026-05-07 09:58 55.86623 -4.43209 24 ft 0 kts 341°
2026-05-07 09:59 55.86617 -4.43206 24 ft 1 kts 346°
2026-05-07 09:59 55.86615 -4.43205 24 ft 0 kts 345°
2026-05-07 10:00 55.86640 -4.43217 24 ft 11 kts 345°
2026-05-07 10:01 55.86739 -4.43268 24 ft 15 kts 344°
2026-05-07 10:01 55.86821 -4.43187 24 ft 16 kts 72°
2026-05-07 10:01 55.86855 -4.42994 24 ft 16 kts 60°
2026-05-07 10:01 55.86954 -4.42885 24 ft 17 kts 27°
2026-05-07 10:02 55.87070 -4.42800 24 ft 18 kts 21°
2026-05-07 10:02 55.87191 -4.42718 23 ft 18 kts 21°
2026-05-07 10:02 55.87317 -4.42637 23 ft 19 kts 18°
2026-05-07 10:02 55.87431 -4.42511 23 ft 20 kts 47°
2026-05-07 10:03 55.87528 -4.42326 22 ft 20 kts 47°
2026-05-07 10:03 55.87628 -4.42140 22 ft 21 kts 47°
2026-05-07 10:03 55.87720 -4.41969 21 ft 8 kts 46°
2026-05-07 10:03 55.87725 -4.41959 21 ft 0 kts 47°
2026-05-07 10:04 55.87730 -4.41951 21 ft 3 kts 47°
2026-05-07 10:04 55.87759 -4.41900 21 ft 10 kts 40°
2026-05-07 10:05 55.87889 -4.41866 21 ft 21 kts 332°
2026-05-07 10:05 55.87876 -4.42047 21 ft 17 kts 225°
2026-05-07 10:05 55.87648 -4.42479 22 ft 84 kts 226°
2026-05-07 10:05 55.87080 -4.43546 25 ft 148 kts 225°
2026-05-07 10:06 55.86359 -4.44955 618 ft 153 kts 225°
2026-05-07 10:06 55.85648 -4.46309 1420 ft 152 kts 224°
2026-05-07 10:06 55.84925 -4.47638 2076 ft 155 kts 223°
2026-05-07 10:06 55.84137 -4.49076 2501 ft 171 kts 224°
2026-05-07 10:07 55.83269 -4.50674 2944 ft 188 kts 224°
2026-05-07 10:07 55.82337 -4.52396 3399 ft 205 kts 225°
2026-05-07 10:07 55.81302 -4.54309 3813 ft 226 kts 227°
2026-05-07 10:07 55.80417 -4.56763 4276 ft 249 kts 249°
2026-05-07 10:08 55.80149 -4.59872 4932 ft 265 kts 273°
2026-05-07 10:08 55.80657 -4.63021 5579 ft 274 kts 298°
2026-05-07 10:08 55.81962 -4.65538 6398 ft 285 kts 325°
2026-05-07 10:08 55.83798 -4.66769 7366 ft 289 kts 352°
2026-05-07 10:09 55.85788 -4.66369 8252 ft 295 kts 21°
2026-05-07 10:09 55.87537 -4.64421 9129 ft 298 kts 40°
2026-05-07 10:09 55.89014 -4.61889 9935 ft 303 kts 46°
2026-05-07 10:09 55.90476 -4.59183 10728 ft 307 kts 46°
2026-05-07 10:10 55.91978 -4.56470 11513 ft 312 kts 44°
2026-05-07 10:10 55.93533 -4.53794 12252 ft 316 kts 40°
2026-05-07 10:10 55.95443 -4.51845 12737 ft 317 kts 13°
2026-05-07 10:10 55.97610 -4.51610 13127 ft 316 kts 352°
2026-05-07 10:11 55.99789 -4.52153 13799 ft 321 kts 350°
2026-05-07 10:11 56.02002 -4.52058 14562 ft 326 kts 11°
2026-05-07 10:11 56.04076 -4.50416 15251 ft 332 kts 36°
2026-05-07 10:11 56.05650 -4.47436 15918 ft 336 kts 59°
2026-05-07 10:12 56.06477 -4.43575 16579 ft 336 kts 81°
2026-05-07 10:12 56.06873 -4.39469 17231 ft 341 kts 78°
2026-05-07 10:12 56.07576 -4.35379 17857 ft 347 kts 68°
2026-05-07 10:12 56.08600 -4.31480 18492 ft 351 kts 62°
2026-05-07 10:13 56.09829 -4.27720 19119 ft 354 kts 58°
2026-05-07 10:13 56.11178 -4.23993 19737 ft 357 kts 56°
2026-05-07 10:13 56.12586 -4.20255 20337 ft 360 kts 55°
2026-05-07 10:13 56.13998 -4.16536 20805 ft 362 kts 55°
2026-05-07 10:14 56.15399 -4.12836 20983 ft 363 kts 56°
2026-05-07 10:14 56.16625 -4.08860 21034 ft 363 kts 66°
2026-05-07 10:14 56.17451 -4.04620 21018 ft 362 kts 76°
2026-05-07 10:14 56.18028 -4.00291 20988 ft 362 kts 76°
2026-05-07 10:15 56.18952 -3.96114 20963 ft 361 kts 57°
2026-05-07 10:15 56.19717 -3.94125 21056 ft 361 kts 51°
2026-05-07 10:15 56.21309 -3.90599 21030 ft 360 kts 48°
2026-05-07 10:15 56.22881 -3.87231 20996 ft 359 kts 49°
2026-05-07 10:16 56.24461 -3.83754 20979 ft 359 kts 50°
2026-05-07 10:16 56.26020 -3.80220 20971 ft 359 kts 50°
2026-05-07 10:16 56.27548 -3.76681 20967 ft 359 kts 51°
2026-05-07 10:16 56.29062 -3.73129 20966 ft 359 kts 51°
2026-05-07 10:17 56.30573 -3.69559 20967 ft 360 kts 51°
2026-05-07 10:17 56.32098 -3.65942 20969 ft 360 kts 51°
2026-05-07 10:17 56.33605 -3.62360 20971 ft 360 kts 51°
2026-05-07 10:17 56.35122 -3.58747 20975 ft 360 kts 51°
2026-05-07 10:18 56.36630 -3.55151 20977 ft 360 kts 51°
2026-05-07 10:18 56.38142 -3.51536 20979 ft 360 kts 51°
2026-05-07 10:18 56.39645 -3.47939 20792 ft 360 kts 51°
2026-05-07 10:18 56.41146 -3.44340 20534 ft 358 kts 51°
2026-05-07 10:19 56.42661 -3.40704 20206 ft 356 kts 51°
2026-05-07 10:19 56.44278 -3.37312 19827 ft 353 kts 42°
2026-05-07 10:19 56.46185 -3.34382 19416 ft 350 kts 34°
2026-05-07 10:19 56.48185 -3.31855 18997 ft 349 kts 32°
2026-05-07 10:20 56.50201 -3.29411 18586 ft 348 kts 31°
2026-05-07 10:20 56.52222 -3.26953 18176 ft 347 kts 32°
2026-05-07 10:20 56.54188 -3.24542 17769 ft 346 kts 32°
2026-05-07 10:20 56.56187 -3.22074 17345 ft 344 kts 32°
2026-05-07 10:21 56.58142 -3.19650 16947 ft 341 kts 32°
2026-05-07 10:21 56.60095 -3.17221 16555 ft 339 kts 32°
2026-05-07 10:21 56.62032 -3.14809 16174 ft 336 kts 32°
2026-05-07 10:21 56.63953 -3.12412 15799 ft 334 kts 32°
2026-05-07 10:22 56.65847 -3.10046 15425 ft 332 kts 32°
2026-05-07 10:22 56.67758 -3.07655 15059 ft 328 kts 32°
2026-05-07 10:22 56.69619 -3.05325 14949 ft 324 kts 32°
2026-05-07 10:22 56.71486 -3.02989 14939 ft 325 kts 32°
2026-05-07 10:23 56.73338 -3.00671 14933 ft 325 kts 32°
2026-05-07 10:23 56.75204 -2.98331 14630 ft 326 kts 33°
2026-05-07 10:23 56.77118 -2.95931 13914 ft 335 kts 33°
2026-05-07 10:23 56.79031 -2.93520 13358 ft 336 kts 33°
2026-05-07 10:24 56.80936 -2.91108 12915 ft 333 kts 33°
2026-05-07 10:24 56.82824 -2.88711 12481 ft 331 kts 33°
2026-05-07 10:24 56.84699 -2.86330 12047 ft 329 kts 33°
2026-05-07 10:24 56.86588 -2.83933 11607 ft 326 kts 33°
2026-05-07 10:25 56.88440 -2.81585 11159 ft 324 kts 34°
2026-05-07 10:25 56.90345 -2.79448 10716 ft 319 kts 27°
2026-05-07 10:25 56.92302 -2.77615 10280 ft 317 kts 25°
2026-05-07 10:25 56.94270 -2.75838 9841 ft 314 kts 24°
2026-05-07 10:26 56.96241 -2.74072 9399 ft 311 kts 24°
2026-05-07 10:26 56.98164 -2.72356 8962 ft 308 kts 24°
2026-05-07 10:26 56.99961 -2.70759 8553 ft 307 kts 24°
2026-05-07 10:26 57.01866 -2.69074 8132 ft 305 kts 24°
2026-05-07 10:27 57.03777 -2.67391 7955 ft 293 kts 24°
2026-05-07 10:27 57.05602 -2.65787 7953 ft 289 kts 24°
2026-05-07 10:27 57.07350 -2.64256 7955 ft 289 kts 24°
2026-05-07 10:27 57.09019 -2.62800 7958 ft 289 kts 24°
2026-05-07 10:28 57.10786 -2.61259 7959 ft 290 kts 24°
2026-05-07 10:28 57.12617 -2.59663 7933 ft 291 kts 24°
2026-05-07 10:28 57.14469 -2.58049 7510 ft 291 kts 24°
2026-05-07 10:28 57.16302 -2.56450 7055 ft 290 kts 24°
2026-05-07 10:29 57.18133 -2.54856 6597 ft 288 kts 24°
2026-05-07 10:29 57.19938 -2.53294 6144 ft 289 kts 24°
2026-05-07 10:29 57.21763 -2.51713 5685 ft 288 kts 24°
2026-05-07 10:30 57.25373 -2.48591 4993 ft 279 kts 24°
2026-05-07 10:30 57.27114 -2.47088 4991 ft 278 kts 24°
2026-05-07 10:30 57.28873 -2.45575 4984 ft 267 kts 24°
2026-05-07 10:30 57.30511 -2.44177 4981 ft 252 kts 24°
2026-05-07 10:31 57.32047 -2.42873 4981 ft 241 kts 24°
2026-05-07 10:31 57.33586 -2.41564 4989 ft 242 kts 24°
2026-05-07 10:31 57.35104 -2.40282 4989 ft 242 kts 24°
2026-05-07 10:31 57.36661 -2.38988 4985 ft 243 kts 24°
2026-05-07 10:32 57.38194 -2.37721 4984 ft 243 kts 24°
2026-05-07 10:32 57.39744 -2.36442 4984 ft 243 kts 24°
2026-05-07 10:32 57.41273 -2.35167 4985 ft 243 kts 27°
2026-05-07 10:32 57.42603 -2.33241 4978 ft 238 kts 59°
2026-05-07 10:33 57.43189 -2.30402 4762 ft 230 kts 92°
2026-05-07 10:33 57.42864 -2.27607 4453 ft 217 kts 127°
2026-05-07 10:33 57.41783 -2.25769 4139 ft 206 kts 162°
2026-05-07 10:33 57.40399 -2.25528 3839 ft 201 kts 192°
2026-05-07 10:34 57.39033 -2.26247 3536 ft 200 kts 199°
2026-05-07 10:34 57.37748 -2.27212 3232 ft 201 kts 203°
2026-05-07 10:34 57.36486 -2.28323 2934 ft 201 kts 204°
2026-05-07 10:34 57.35224 -2.29423 2644 ft 199 kts 198°
2026-05-07 10:35 57.33894 -2.29629 2502 ft 189 kts 170°
2026-05-07 10:35 57.33069 -2.29252 2493 ft 174 kts 163°
2026-05-07 10:35 57.31620 -2.28231 2543 ft 158 kts 160°
2026-05-07 10:35 57.30642 -2.27485 2321 ft 146 kts 161°
2026-05-07 10:36 57.29749 -2.26814 2117 ft 132 kts 161°
2026-05-07 10:36 57.28930 -2.26205 1913 ft 122 kts 162°
2026-05-07 10:36 57.28157 -2.25642 1740 ft 117 kts 161°
2026-05-07 10:36 57.27404 -2.25093 1578 ft 116 kts 161°
2026-05-07 10:37 57.26652 -2.24544 1428 ft 116 kts 160°
2026-05-07 10:37 57.25907 -2.23990 1277 ft 116 kts 160°
2026-05-07 10:37 57.25155 -2.23441 1120 ft 116 kts 158°
2026-05-07 10:37 57.24402 -2.22887 960 ft 116 kts 159°
2026-05-07 10:38 57.23661 -2.22331 784 ft 116 kts 158°
2026-05-07 10:38 57.22908 -2.21771 641 ft 116 kts 160°
2026-05-07 10:38 57.22156 -2.21234 464 ft 115 kts 159°
2026-05-07 10:38 57.21421 -2.20682 340 ft 115 kts 160°
2026-05-07 10:39 57.20680 -2.20135 212 ft 104 kts 158°
2026-05-07 10:39 57.20251 -2.19818 208 ft 47 kts 158°
2026-05-07 10:39 57.19964 -2.19605 209 ft 41 kts 159°
2026-05-07 10:39 57.19716 -2.19415 214 ft 36 kts 159°
2026-05-07 10:40 57.19500 -2.19261 220 ft 24 kts 161°
2026-05-07 10:40 57.19454 -2.19405 220 ft 20 kts 313°
2026-05-07 10:40 57.19570 -2.19596 217 ft 23 kts 318°
2026-05-07 10:40 57.19711 -2.19746 214 ft 24 kts 338°
2026-05-07 10:41 57.19870 -2.19875 212 ft 25 kts 324°
2026-05-07 10:41 57.19968 -2.20040 212 ft 12 kts 304°
2026-05-07 10:41 57.19958 -2.20153 214 ft 3 kts 249°
2026-05-07 10:41 57.19955 -2.20167 214 ft 0 kts 249°